IK2CHZ-3 Weather Reports


time (UTC)temp
C
wind
direction
speed
KPH
gust
KPH
rain 1hr
cm
rain 24hr
cm
rain mn
cm
humidity
%
barometer
mb
20260505211706 14 75 0.0 0.0 0.05 0.69 0.69 90 1012.7
20260505210607 14 75 0.0 0.0 0.13 0.69 0.69 90 1012.8
20260505205506 14 74 0.0 0.0 0.15 0.69 0.69 90 1012.8
20260505204406 14 78 1.6 3.2 0.30 0.69 0.69 90 1012.6
20260505203305 15 82 1.6 3.2 0.30 0.69 0.69 90 1012.7
20260505202206 15 82 0.0 3.2 0.25 0.64 0.64 89 1012.9
20260505201107 15 82 0.0 0.0 0.23 0.61 0.61 88 1012.9
20260505200006 15 82 0.0 0.0 0.18 0.56 0.56 87 1012.7
20260505194907 15 83 0.0 0.0 0.03 0.41 0.41 86 1012.7
20260505193806 15 84 1.6 1.6 0.00 0.38 0.38 86 1012.6
20260505192706 15 76 3.2 4.8 0.00 0.38 0.38 86 1012.5
20260505191605 15 78 1.6 8.0 0.00 0.38 0.38 86 1012.6
20260505190506 15 82 0.0 4.8 0.00 0.38 0.38 86 1012.5
20260505185405 15 83 0.0 3.2 0.00 0.38 0.38 86 1012.4
20260505184306 15 84 1.6 3.2 0.00 0.38 0.38 86 1012.4
20260505183207 15 100 1.6 4.8 0.00 0.38 0.38 86 1012.4
20260505182106 15 83 1.6 3.2 0.00 0.38 0.38 86 1012.3
20260505181006 15 94 1.6 4.8 0.00 0.38 0.38 85 1012.4
20260505175905 15 79 1.6 4.8 0.00 0.38 0.38 85 1012.4
20260505174806 15 69 1.6 3.2 0.00 0.38 0.38 85 1012.3
20260505173705 15 65 0.0 3.2 0.00 0.38 0.38 85 1012.3
20260505172607 15 77 3.2 4.8 0.00 0.38 0.38 85 1012.3
20260505171507 15 36 1.6 3.2 0.00 0.38 0.38 85 1012.3
20260505170406 15 70 1.6 4.8 0.00 0.38 0.38 85 1012.3
20260505165307 15 78 1.6 4.8 0.00 0.38 0.38 85 1012.3
20260505164205 15 88 1.6 3.2 0.00 0.38 0.38 86 1012.4
20260505163107 15 80 3.2 8.0 0.00 0.38 0.38 85 1012.5
20260505162005 15 75 4.8 4.8 0.00 0.38 0.38 85 1012.5
20260505160907 16 110 1.6 4.8 0.00 0.38 0.38 85 1012.6
20260505152505 15 76 3.2 4.8 0.00 0.38 0.38 86 1012.7
20260505151406 15 111 1.6 3.2 0.00 0.38 0.38 86 1012.8
20260505150305 15 80 1.6 9.7 0.00 0.38 0.38 86 1012.8
20260505130206 15 93 4.8 11.3 0.03 0.38 0.38 86 1013.1
20260505124005 15 94 4.8 11.3 0.00 0.36 0.36 84 1013.0
20260505122907 16 109 4.8 11.3 0.00 0.36 0.36 82 1013.1
20260505121807 16 105 3.2 4.8 0.00 0.36 0.36 82 1013.0
20260505120707 16 90 9.7 11.3 0.00 0.36 0.36 83 1013.1
20260505115606 15 75 3.2 8.0 0.00 0.36 0.36 85 1013.1
20260505114507 15 72 1.6 4.8 0.00 0.36 0.36 86 1013.2
20260505113406 15 100 4.8 9.7 0.00 0.36 0.36 85 1013.2
20260505112305 15 103 1.6 4.8 0.00 0.36 0.36 85 1013.2
20260505111207 15 126 1.6 3.2 0.00 0.36 0.36 85 1013.2
20260505110106 15 117 1.6 3.2 0.00 0.36 0.36 85 1013.3
20260505101706 15 146 4.8 4.8 0.00 0.36 0.36 86 1013.4
20260505100605 15 147 4.8 4.8 0.00 0.36 0.36 86 1013.4
20260505095506 15 89 3.2 8.0 0.00 0.36 0.36 88 1013.4
20260505094407 15 90 3.2 8.0 0.00 0.36 0.36 89 1013.3
20260505093306 14 98 0.0 1.6 0.03 0.36 0.36 90 1013.2
20260505092207 13 227 0.0 1.6 0.10 0.36 0.36 91 1013.2
20260505091105 13 230 0.0 0.0 0.10 0.36 0.36 91 1013.3
20260505090006 13 230 0.0 0.0 0.13 0.36 0.36 91 1013.2
20260505084204 13 230 0.0 0.0 0.20 0.36 0.36 90 1013.1
20260505083104 13 230 1.6 3.2 0.25 0.36 0.36 90 1013.1
20260505082004 13 228 0.0 1.6 0.20 0.30 0.30 90 1012.9
20260505080904 13 227 0.0 1.6 0.18 0.25 0.25 90 1012.7
20260505075804 13 227 0.0 0.0 0.20 0.25 0.25 90 1012.9
20260505074703 13 227 0.0 3.2 0.15 0.20 0.20 90 1012.9
20260505073604 13 232 1.6 3.2 0.10 0.13 0.13 90 1012.9
20260505072505 13 232 0.0 3.2 0.08 0.10 0.10 90 1013.3
20260505071404 13 240 3.2 4.8 0.05 0.08 0.08 90 1013.5
20260505070305 13 233 1.6 4.8 0.05 0.08 0.08 90 1013.4
20260505065203 13 235 1.6 4.8 0.05 0.05 0.05 89 1013.4
20260505064104 13 233 3.2 4.8 0.03 0.03 0.03 88 1013.4
20260505063005 13 232 4.8 14.5 0.03 0.03 0.03 87 1013.3
20260505061904 13 223 3.2 8.0 0.03 0.03 0.03 86 1013.2
20260505060805 14 236 3.2 9.7 0.03 0.03 0.03 83 1013.1
20260505055704 15 258 3.2 4.8 0.00 0.00 0.00 81 1013.1
20260505054604 15 241 3.2 4.8 0.00 0.00 0.00 80 1012.8
20260505053504 15 237 3.2 4.8 0.00 0.00 0.00 78 1012.7
20260505052403 15 251 3.2 4.8 0.00 0.00 0.00 76 1012.5
20260505051305 15 276 1.6 4.8 0.00 0.00 0.00 74 1012.3